Location: Chavannes
(47.1090°N, 0.2226°W)
Time: 13:36:37
(UTC+00:00)

COSMO-SKYMED 1 - Pass Details

Date: 16 October 2021
Orbit: 621 x 623 km, 97.9° (Epoch: 03 December)

Event Time Altitude Azimuth Distance (km) Brightness Sun altitude
Rises 18:37:27 0° 9° (N) 2,918 6.0 -15.4°
Reaches altitude 10° 18:39:42 10° 4° (N) 2,006 5.2 -15.8°
Maximum altitude 18:43:56 53° 288° (WNW) 770 3.4 -16.5°
Drops below altitude 10° 18:48:09 10° 212° (SSW) 1,989 5.5 -17.2°
Sets 18:50:22 0° 208° (SSW) 2,891 6.3 -17.6°
